カタログに戻る

RASSVET-3 1

運用中科学PO
NORAD 68360·PAYLOAD·🇷🇺 Russia

打ち上げ Mar 23, 2026 から Plesetsk Cosmodrome

Loading…

次のパス (今後24時間)

TLE

最新Source: Space-Track

元期: Sep 14, 2026, 02:41 UTC

1 68360U 26061A   26257.11241720  .00002813  00000-0  13531-3 0  9998
2 68360  82.2874 281.3896 0002343  73.7194 286.4297 15.18415750 27066

AllMySatでRASSVET-3 1をリアルタイム追跡

Download on the App Store